Flag for Canada Weather past 2 weeks in Sherbrooke, Quebec, Canada

Now
54 °F

Passing clouds.


Feels Like: 53 °F
Forecast: 52 / 67 °F
Wind: 5 mph from East

Location: Sherbrooke

Current Time: Jul 31, 2014 at 1:25:38 AM

Latest Report: Jul 31, 2014 at 1:00 AM


Visibility: 9 mi

Pressure: 30.02 "Hg

Humidity: 94%

Dew point: 52 °F

Location of SherbrookeLocation

Historic Weather in Sherbrooke — Graph

°F

Sherbrooke temperature yesterday

Maximum temperature yesterday: 73 °F (at 4:00 PM)
Minimum temperature yesterday: 46 °F (at 2:00 AM)
Average temperature yesterday: 58 °F

Past Weeks' High & Low Weather Summary

 TemperatureHumidityPressure
High82 °F (Jul 22, 1:00 PM)100% (Jul 16, 5:00 AM)30.31 "Hg (Jul 16, 5:00 AM)
Low46 °F (Jul 25, 6:00 AM)39% (Jul 20, 1:00 PM)29.49 "Hg (Jul 28, 7:04 PM)
Average64 °F79%29.93 "Hg
* Reported Midnight between Jul 15 and Jul 16 — Midnight between Jul 30 and Jul 31, Sherbrooke, Weather by CustomWeather, © 2014

Note: Actual official high and low records may vary slightly from our data, if they occured in-between our weather recording intervals... More about our weather records

Advertising

Sherbrooke weather history for previous 24 hours

 ConditionsComfort  
Time TempWeatherWind HumidityBarometerVisibility
12:00 AM
Jul 31
54 °FClear.3 mph94%30.02 "Hg9 mi
11:00 PM
Jul 30
55 °FClear.3 mph94%30.01 "Hg9 mi
10:00 PM55 °FClear.3 mph94%30.01 "Hg9 mi
9:00 PM59 °FSunny.2 mph82%30.00 "Hg9 mi
8:00 PM64 °FPassing clouds.3 mph73%30.00 "Hg9 mi
7:00 PM70 °FPartly sunny.2 mph53%29.99 "Hg9 mi
6:00 PM72 °FSunny.3 mph47%29.98 "Hg9 mi
5:00 PM73 °FPassing clouds.2 mph41%29.98 "Hg9 mi
4:00 PM73 °FPartly sunny.5 mph41%29.98 "Hg9 mi
3:00 PM72 °FOvercast.3 mph47%29.98 "Hg9 mi
2:00 PM72 °FOvercast.2 mph41%30.01 "Hg9 mi
1:00 PM68 °FPartly sunny.3 mph56%30.01 "Hg9 mi
12:00 PM68 °FBroken clouds.3 mph56%30.03 "Hg9 mi
11:00 AM66 °FSunny.3 mph64%30.04 "Hg9 mi
10:00 AM63 °FSunny.No wind73%30.05 "Hg9 mi
9:00 AM57 °FSunny.2 mph82%30.06 "Hg9 mi
8:00 AM52 °FSunny.2 mph94%30.06 "Hg9 mi
7:00 AM48 °FSunny.5 mph100%30.05 "Hg9 mi
6:00 AM46 °FPassing clouds.5 mph93%30.04 "Hg9 mi
5:00 AM46 °FClear.2 mph93%30.02 "Hg9 mi
4:00 AM46 °FClear.3 mph100%30.00 "Hg9 mi
3:00 AM48 °FClear.5 mph94%30.00 "Hg9 mi
2:00 AM46 °FClear.5 mph100%29.99 "Hg9 mi
1:53 AM48 °FClear.3 mph100%29.99 "Hg9 mi
1:00 AM50 °FClear.2 mph100%29.98 "Hg9 mi
Weather by CustomWeather, © 2014

See weather overviewHow to use our weather pages